Hourly Data Report for October 05, 2016

All times are specified in Local Standard Time (LST). Add 1 hour to adjust for Daylight Saving Time where and when it is observed.

KITCHENER/WATERLOO
ONTARIO

43°27'39.000" N
80°22'43.000" W
321.60 m
6144239
71368
YKF

Download Data

Hourly Data (October 2016)
Hourly Data Report for October 5, 2016
Temp Definition
°C
Dew Point Temp Definition
°C
Rel Hum Definition
%
Wind Dir Definition
10's deg

Wind Spd Definition
km/h
Visibility Definition
km
Stn Press Definition
kPa
Hmdx Definition


Wind Chill Definition


Weather Definition


TIME
00:00 Legend Double Dagger 13.0 12.4 96 9 8 3.6 98.59     Fog
01:00 Legend Double Dagger 14.1 13.6 97 10 8 1.6 98.58     Fog
02:00 Legend Double Dagger 13.7 13.2 97 11 8 0.4 98.56     Fog
03:00 Legend Double Dagger 13.3 13.0 98 11 4 0.4 98.53     Fog
04:00 Legend Double Dagger 12.0 11.7 98 7 8 0.2 98.56     Fog
05:00 Legend Double Dagger 10.8 10.5 98 10 5 0.8 98.60     Fog
06:00 Legend Double Dagger 10.7 10.4 98 11 8 3.2 98.63     Fog
07:00 Legend Double Dagger 11.6 11.3 98 12 8 4.0 98.65     Fog
08:00 Legend Double Dagger 14.0 13.7 98 15 9 8.1 98.66     Fog
09:00 Legend Double Dagger 16.2 14.2 88 15 17 16.1 98.65     LegendNANA
10:00 Legend Double Dagger 18.3 14.3 77 18 17 16.1 98.61     LegendNANA
11:00 Legend Double Dagger 19.4 14.8 74 14 18 16.1 98.52     LegendNANA
12:00 Legend Double Dagger 20.7 14.5 67 18 18 16.1 98.49     LegendNANA
13:00 Legend Double Dagger 21.3 14.1 63 15 18 12.9 98.43 25   LegendNANA
14:00 Legend Double Dagger 21.6 14.2 62 15 18 16.1 98.37 25   LegendNANA
15:00 Legend Double Dagger 21.8 14.6 63 13 21 16.1 98.34 26   LegendNANA
16:00 Legend Double Dagger 21.2 14.1 63 15 21 16.1 98.31 25   LegendNANA
17:00 Legend Double Dagger 19.8 13.9 68 14 17 16.1 98.31     LegendNANA
18:00 Legend Double Dagger 17.2 13.4 78 12 15 16.1 98.28     LegendNANA
19:00 Legend Double Dagger 15.6 13.8 89 11 13 16.1 98.31     LegendNANA
20:00 Legend Double Dagger 14.5 13.4 93 11 11 16.1 98.32     LegendNANA
21:00 Legend Double Dagger 13.5 12.7 95 12 8 9.7 98.35     Fog
22:00 Legend Double Dagger 13.4 12.9 97 15 4 4.8 98.39     Fog
23:00 Legend Double Dagger 13.3 12.8 97 15 9 9.7 98.39     Fog

Notes on Data Quality.

Legend

  • E = Estimated
  • M = Missing
  • NA = Not Available
  • ‡ = Partner data that is not subject to review by the National Climate Archives
Date modified: